C/2017 T2 ( PanSTARRS )

Japanese version
Home page
Updated on November 23, 2017

---------------------------------------------------------------------

* Profile

Discovery Date October 2, 2017
Magnitude 19.9 mag
Discoverer Pan-STARRS 1 telescope (Haleakala)

* Pictures

* Orbital Elements

Epoch 2020 Apr. 21.0 TT = JDT 2458960.5
T 2020 May 6.22675 TT                                   MPCW
q   1.6168925            (2000.0)            P               Q
z  +0.0010008      Peri.   93.02665     -0.51061724     -0.40566464
 +/-0.0004321      Node    64.40166     -0.16317987     -0.81995448
e   0.9983818      Incl.   57.20387     +0.84418147     -0.40386983
From 81 observations 2017 Sept. 15-Oct. 24, mean residual 0".4.

* Finding Charts

* Magnitudes Graph

        m1 = 5.0 + 5 log d + 10.0 log r

---------------------------------------------------------------------

The orbital elements are published on M.P.E.C. 2017-V13.
The charts are made with StellaNavigator Ver.10 (AstroArts).
The magnitudes graphs are made with Comet for Windows.

---------------------------------------------------------------------

Copyright(C) Seiichi Yoshida (comet@aerith.net). All rights reserved.